Weather History for Clinton, MO

Change the Weather History Date:

Tuesday, October 9, 2012

  Actual Average (KSZL) Record (KSZL)
Temperature  
Mean Temperature 56 °F -  
Max Temperature 68 °F 68 °F 82 °F (2007)
Min Temperature 44 °F 48 °F 28 °F (2000)
Degree Days  
Heating Degree Days 9    
Growing Degree Days 6 (Base 50)    
Moisture  
Dew Point 46 °F    
Average Humidity 72    
Maximum Humidity 100    
Minimum Humidity 49    
Precipitation  
Precipitation 0.00 in - - ()
Sea Level Pressure  
Sea Level Pressure 29.99 in    
Wind  
Wind Speed 7 mph (SSW)    
Max Wind Speed 13 mph    
Max Gust Speed 20 mph    
Visibility 7 miles    
Events Rain    
Averages and records for this station are not official NWS values.
T = Trace of Precipitation, MM = Missing Value Source: NWS Daily Summary

Daily Weather History Graph

Daily Weather History Graph

Search for Another Location

Airport:

Trip Planner

Search our weather history database for the weather conditions in past years. The results will help you decide how hot, cold, wet, or windy it might be!

Date:

Astronomy

Oct. 09, 2012 Rise Set
Actual Time 7:18 AM CDT 6:44 PM CDT
Civil Twilight 6:51 AM CDT 7:11 PM CDT
Nautical Twilight 6:21 AM CDT 7:41 PM CDT
Astronomical Twilight 5:50 AM CDT 8:12 PM CDT
Moon 1:00 AM CDT (10/9) 3:08 PM CDT (10/9)
Length of Visible Light 12h 19m
Length of Day
11h 26m
Last Quarter, 36% of the Moon is Illuminated
Oct 9
Last Quarter
Oct 15
New
Oct 21
First Quarter
Oct 29
Full
Nov 6
Last Quarter

Hourly Weather History & Observations

Time (CDT) Temp. Windchill Dew Point Humidity Pressure Visibility Wind Dir Wind Speed Gust Speed Precip Events Conditions
12:15 AM 48.2 °F - 37.4 °F 66% 30.03 in 8.0 mi South 6.9 mph - N/A   Clear
12:35 AM 48.2 °F - 37.4 °F 66% 30.02 in 8.0 mi South 8.1 mph - N/A   Clear
12:55 AM 48.2 °F - 39.2 °F 71% 30.02 in 8.0 mi South 8.1 mph - N/A   Clear
1:15 AM 48.2 °F - 39.2 °F 71% 30.01 in 9.0 mi SSW 8.1 mph - N/A   Clear
1:55 AM 48.2 °F - 39.2 °F 71% 30.01 in 8.0 mi South 8.1 mph - N/A   Clear
2:15 AM 48.2 °F - 39.2 °F 71% 30.01 in 8.0 mi South 8.1 mph - N/A   Clear
2:55 AM 46.4 °F 42.4 °F 39.2 °F 76% 30.00 in 8.0 mi South 8.1 mph - N/A   Clear
3:15 AM 46.4 °F 45.2 °F 39.2 °F 76% 29.99 in 9.0 mi South 3.5 mph - N/A   Clear
3:35 AM 46.4 °F 44.3 °F 39.2 °F 76% 29.99 in 9.0 mi South 4.6 mph - N/A   Clear
3:55 AM 44.6 °F 42.2 °F 39.2 °F 81% 29.99 in 9.0 mi South 4.6 mph - N/A   Clear
4:15 AM 44.6 °F 41.4 °F 39.2 °F 81% 29.98 in 9.0 mi South 5.8 mph - N/A   Clear
4:35 AM 46.4 °F 42.9 °F 39.2 °F 76% 29.99 in 9.0 mi South 6.9 mph - N/A   Clear
4:55 AM 46.4 °F 44.3 °F 39.2 °F 76% 29.99 in 9.0 mi South 4.6 mph - N/A   Clear
5:15 AM 44.6 °F 41.4 °F 39.2 °F 81% 29.99 in 10.0 mi South 5.8 mph - N/A   Clear
5:35 AM 44.6 °F 40.7 °F 39.2 °F 81% 29.99 in 9.0 mi South 6.9 mph - N/A   Clear
5:55 AM 44.6 °F 40.7 °F 39.2 °F 81% 29.99 in 8.0 mi South 6.9 mph - N/A   Clear
6:15 AM 46.4 °F 42.9 °F 39.2 °F 76% 29.99 in 8.0 mi South 6.9 mph - N/A   Clear
6:35 AM 46.4 °F 42.4 °F 39.2 °F 76% 29.99 in 7.0 mi South 8.1 mph - N/A   Clear
6:55 AM 46.4 °F 42.4 °F 39.2 °F 76% 29.99 in 8.0 mi South 8.1 mph - N/A   Clear
7:15 AM 46.4 °F 43.5 °F 39.2 °F 76% 29.99 in 9.0 mi South 5.8 mph - N/A   Clear
7:55 AM 46.4 °F 42.9 °F 41.0 °F 81% 29.99 in 6.0 mi South 6.9 mph - N/A   Haze
8:15 AM 48.2 °F - 41.0 °F 76% 29.99 in 5.0 mi South 9.2 mph - N/A   Haze
8:35 AM 50.0 °F - 42.8 °F 76% 29.99 in 5.0 mi South 8.1 mph - N/A   Haze
8:55 AM 51.8 °F - 42.8 °F 71% 29.98 in 5.0 mi South 9.2 mph - N/A   Haze
9:15 AM 53.6 °F - 42.8 °F 67% 29.98 in 5.0 mi South 11.5 mph 16.1 mph N/A   Haze
9:35 AM 53.6 °F - 42.8 °F 67% 29.98 in 5.0 mi South 11.5 mph 17.3 mph N/A   Haze
9:55 AM 55.4 °F - 44.6 °F 67% 29.98 in 5.0 mi South 10.4 mph 19.6 mph N/A   Haze
10:15 AM 57.2 °F - 44.6 °F 63% 29.98 in 6.0 mi South 12.7 mph 19.6 mph N/A   Haze
10:35 AM 57.2 °F - 44.6 °F 63% 29.99 in 6.0 mi South 12.7 mph 18.4 mph N/A   Haze
10:55 AM 59.0 °F - 44.6 °F 59% 29.99 in 7.0 mi SSW 10.4 mph 18.4 mph N/A   Clear
11:15 AM 60.8 °F - 46.4 °F 59% 29.99 in 7.0 mi SSW 11.5 mph 18.4 mph N/A   Clear
11:35 AM 60.8 °F - 46.4 °F 59% 29.98 in 6.0 mi SSW 11.5 mph - N/A   Haze
11:55 AM 62.6 °F - 46.4 °F 55% 29.97 in 7.0 mi SW 9.2 mph - N/A   Clear
12:15 PM 62.6 °F - 46.4 °F 55% 29.97 in 7.0 mi South 8.1 mph 16.1 mph N/A   Clear
12:35 PM 64.4 °F - 48.2 °F 56% 29.96 in 7.0 mi SSW 8.1 mph - N/A   Clear
12:55 PM 64.4 °F - 48.2 °F 56% 29.95 in 5.0 mi South 9.2 mph - N/A   Haze
1:15 PM 66.2 °F - 48.2 °F 52% 29.94 in 6.0 mi South 6.9 mph - N/A   Haze
1:35 PM 66.2 °F - 48.2 °F 52% 29.93 in 7.0 mi SW 9.2 mph - N/A   Clear
1:55 PM 66.2 °F - 48.2 °F 52% 29.92 in 5.0 mi SSW 8.1 mph - N/A   Haze
2:15 PM 66.2 °F - 48.2 °F 52% 29.91 in 9.0 mi South 6.9 mph - N/A   Mostly Cloudy
2:35 PM 68.0 °F - 48.2 °F 49% 29.91 in 9.0 mi South 9.2 mph - N/A   Scattered Clouds
2:55 PM 68.0 °F - 50.0 °F 52% 29.91 in 9.0 mi SSW 6.9 mph - N/A   Scattered Clouds
3:15 PM 66.2 °F - 50.0 °F 56% 29.91 in 8.0 mi SSW 8.1 mph - N/A   Mostly Cloudy
3:35 PM 66.2 °F - 50.0 °F 56% 29.91 in 8.0 mi SSW 6.9 mph - N/A   Mostly Cloudy
3:55 PM 66.2 °F - 51.8 °F 60% 29.90 in 6.0 mi SSW 8.1 mph - N/A   Haze
4:15 PM 66.2 °F - 51.8 °F 60% 29.90 in 5.0 mi SW 6.9 mph - N/A   Haze
4:35 PM 66.2 °F - 51.8 °F 60% 29.90 in 5.0 mi WSW 4.6 mph - N/A   Haze
4:55 PM 64.4 °F - 50.0 °F 59% 29.91 in 6.0 mi SW 5.8 mph - N/A   Haze
5:15 PM 64.4 °F - 51.8 °F 64% 29.91 in 5.0 mi WSW 4.6 mph - N/A   Haze
5:35 PM 64.4 °F - 51.8 °F 64% 29.92 in 4.0 mi West 9.2 mph - N/A   Light Drizzle
5:55 PM 62.6 °F - 51.8 °F 68% 29.93 in 7.0 mi West 6.9 mph - N/A   Overcast
6:15 PM 60.8 °F - 53.6 °F 77% 29.95 in 2.5 mi West 11.5 mph 16.1 mph N/A Rain Light Rain
6:35 PM 57.2 °F - 55.4 °F 94% 29.96 in 2.0 mi West 6.9 mph - N/A   Heavy Drizzle
6:55 PM 57.2 °F - 55.4 °F 94% 29.97 in 2.5 mi WNW 3.5 mph - N/A   Light Drizzle
7:15 PM 57.2 °F - 55.4 °F 94% 29.97 in 3.0 mi Calm Calm - N/A   Overcast
7:35 PM 57.2 °F - 57.2 °F 100% 29.99 in 3.0 mi West 4.6 mph - N/A   Mostly Cloudy
7:55 PM 55.4 °F - 55.4 °F 100% 30.00 in 2.5 mi NNW 8.1 mph - N/A Rain Light Rain
8:15 PM 55.4 °F - 53.6 °F 94% 30.00 in 5.0 mi NNE 4.6 mph - N/A   Overcast
8:35 PM 55.4 °F - 53.6 °F 94% 30.01 in 7.0 mi Calm Calm - N/A   Overcast
8:55 PM 55.4 °F - 55.4 °F 100% 30.02 in 7.0 mi Calm Calm - N/A   Overcast
9:15 PM 55.4 °F - 53.6 °F 94% 30.04 in 9.0 mi NNW 8.1 mph - N/A   Overcast
9:35 PM 55.4 °F - 51.8 °F 88% 30.05 in 9.0 mi North 6.9 mph - N/A   Overcast
9:55 PM 53.6 °F - 50.0 °F 88% 30.06 in 8.0 mi North 8.1 mph - N/A   Overcast
10:15 PM 53.6 °F - 48.2 °F 82% 30.08 in 10.0 mi North 9.2 mph - N/A   Overcast
10:35 PM 53.6 °F - 46.4 °F 77% 30.09 in 10.0 mi North 8.1 mph - N/A   Overcast
10:55 PM 53.6 °F - 46.4 °F 77% 30.10 in 10.0 mi North 6.9 mph - N/A   Overcast
11:15 PM 51.8 °F - 46.4 °F 82% 30.11 in 10.0 mi North 6.9 mph - N/A   Overcast
11:35 PM 50.0 °F - 44.6 °F 82% 30.12 in 10.0 mi North 5.8 mph - N/A   Overcast
11:55 PM 48.2 °F - 42.8 °F 82% 30.13 in 10.0 mi NNW 8.1 mph - N/A   Partly Cloudy